Temp
61 58 51 56 57 57 56 54 53 59 64 61 58 60 64 66 66 66 66 66 67 70 71 70 71 70 66 64 63 63 63 62 63 63 61 61 58 57 57 57 57 57 57 56
58 53 62 62 61 59 57 53 55 61 64 59 57 61 61 63 69 71 69 68 68 66 68 68 66 66 63 61 60 60 59 59 59 60 59 60 58 55 55 55 55 55 54 54
55 61 66 65 60 59 55 54 55 58 61 59 57 57 57 62 64 66 67 68 69 68 66 65 64 61 60 59 58 57 57 56 56 57 58 56 56 56 53 52 52 52 53 53
57 64 65 60 61 61 52 62 62 60 55 51 54 46 52 57 59 66 66 64 67 67 67 63 60 58 58 57 57 55 55 55 55 55 55 53 52 53 51 48 49 49 51 51
59 60 60 58 61 63 60 62 60 58 51 49 53 49 53 55 57 59 56 57 57 59 63 59 57 56 56 55 54 53 53 52 52 52 51 52 52 50 48 47 46 47 49 50
60 65 64 64 66 65 66 60 55 50 47 42 47 47 48 49 51 53 55 57 57 57 57 57 56 55 53 54 53 52 52 50 51 51 51 51 48 46 45 45 46 47 48 49
57 59 63 68 60 60 57 50 41 41 40 41 47 46 48 53 55 55 56 57 58 58 56 54 52 52 52 52 53 52 50 49 50 50 49 48 46 45 45 44 44 44 46 47
49 48 59 65 63 58 53 52 40 37 36 42 48 43 49 56 57 56 59 58 57 55 55 53 52 51 51 50 50 50 49 48 49 48 47 47 46 45 45 44 44 44 44 47
47 51 62 66 65 64 53 50 52 43 40 40 43 47 55 56 55 54 53 56 54 54 51 49 50 49 48 47 47 48 48 48 48 47 46 46 46 45 44 45 45 45 46 50
56 48 59 64 64 61 57 59 48 42 37 36 41 43 45 51 51 51 50 49 52 50 49 49 49 48 48 48 49 50 48 47 47 46 46 46 45 46 45 45 45 46 47 49
54 52 54 57 54 54 53 49 46 44 41 36 34 42 50 52 53 50 50 50 49 48 49 49 48 49 49 49 48 48 47 46 46 46 46 45 45 45 45 45 46 46 47 48
56 51 46 53 57 59 54 50 48 41 40 37 38 41 55 54 53 52 51 52 49 49 49 48 49 48 48 47 47 47 47 47 47 46 45 44 44 44 44 45 46 47 47 48
56 47 42 47 52 55 52 50 48 44 42 39 36 41 55 55 54 53 51 50 50 48 47 47 47 48 47 46 47 47 48 47 46 46 45 44 44 44 44 45 46 47 47 47
57 46 48 44 47 50 48 50 49 47 41 40 41 46 50 51 52 52 51 50 48 48 48 47 46 46 47 47 48 48 46 46 45 44 44 44 44 44 44 45 46 46 45 45
53 46 47 49 53 55 53 52 49 47 48 45 48 48 53 53 53 55 52 49 49 48 48 46 45 45 46 45 47 47 46 45 44 44 44 44 44 45 46 45 45 44 44 44
49 45 46 46 52 54 52 53 53 52 50 49 49 48 53 53 53 52 51 50 49 49 48 48 48 47 47 48 47 47 45 44 44 44 44 45 45 46 45 45 43 43 42 42
50 48 43 40 48 50 45 52 54 50 50 52 46 51 52 51 52 52 51 51 51 49 49 48 48 48 47 45 46 45 45 44 44 44 45 45 46 46 46 44 43 41 40 41
46 43 41 39 42 35 49 54 54 52 50 50 51 52 52 51 48 49 52 52 50 49 49 48 47 47 47 47 46 46 45 44 44 44 44 46 46 45 46 44 42 41 41 40
49 44 39 38 37 44 50 52 51 50 49 52 51 51 50 49 50 49 49 52 49 48 48 48 47 46 46 46 46 45 44 44 44 45 45 46 46 45 45 44 42 41 40 40
50 47 44 37 36 35 47 54 58 55 43 53 53 51 48 49 46 48 46 48 47 48 50 48 48 48 46 45 45 44 44 43 44 44 45 46 46 45 45 44 42 41 41 41
41 40 39 35 36 42 52 57 58 43 44 52 53 52 49 48 48 45 45 45 47 47 48 48 48 46 46 46 45 44 43 43 44 45 45 46 46 44 45 44 42 42 42 42
42 38 36 36 35 37 56 56 50 50 49 53 53 52 50 44 44 44 45 45 46 47 49 49 47 47 46 45 44 44 43 45 45 45 45 45 44 46 46 43 43 42 41 41
42 44 42 43 42 49 52 53 53 53 53 52 52 49 46 44 44 44 44 44 46 48 49 50 48 46 45 45 44 44 45 45 45 44 44 44 44 45 45 43 43 42 41 41
44 46 43 45 47 49 52 52 54 54 53 52 51 48 48 45 45 45 44 45 46 49 49 49 48 47 46 47 47 45 46 46 44 43 43 43 43 44 44 44 43 42 41 41
45 46 44 43 47 50 52 52 53 52 52 50 50 49 47 47 46 46 45 47 50 50 50 49 46 46 48 48 48 46 47 46 44 43 43 43 43 42 42 43 43 43 43 42
45 45 42 41 48 48 49 52 54 53 52 50 49 47 49 49 48 48 48 51 49 47 46 45 46 46 48 48 48 47 48 47 45 44 44 43 42 42 43 42 43 42 41 41
MSLP
1010.55 1011.35 1011.68 1011.81 1011.93 1011.82 1011.79 1011.71 1011.51 1010.60 1009.80 1009.77 1009.76 1010.01 1009.82 1009.93 1010.53 1010.74 1011.21 1011.68 1011.83 1011.70 1012.09 1013.10 1013.77 1014.33 1014.77 1015.35 1016.03 1016.57 1017.00 1017.54 1017.98 1018.45 1018.78 1018.87 1019.28 1019.91 1020.42 1020.66 1020.97 1020.86 1020.72 1020.45
1011.17 1011.30 1011.12 1011.31 1011.40 1011.51 1011.52 1011.47 1011.16 1010.50 1010.13 1010.04 1010.19 1009.99 1009.88 1010.03 1009.53 1009.76 1010.58 1011.41 1011.78 1012.36 1012.62 1013.20 1013.86 1014.59 1015.15 1015.83 1016.69 1017.40 1017.99 1018.42 1018.88 1018.96 1019.22 1019.43 1019.83 1020.50 1020.89 1021.23 1021.21 1021.08 1020.95 1020.78
1011.16 1010.78 1010.56 1010.78 1010.91 1011.13 1011.20 1011.18 1010.90 1011.05 1010.67 1010.59 1010.71 1010.97 1010.73 1010.38 1010.55 1010.92 1011.36 1011.93 1012.14 1012.32 1013.11 1013.87 1014.45 1015.24 1016.19 1017.02 1017.72 1018.60 1019.25 1019.53 1019.70 1019.74 1019.79 1020.08 1020.39 1020.63 1020.95 1021.23 1021.66 1021.50 1021.27 1020.88
1010.82 1010.18 1010.14 1010.22 1010.38 1010.46 1010.55 1010.13 1010.55 1011.08 1011.62 1011.90 1011.97 1012.61 1011.79 1011.57 1011.52 1011.72 1012.60 1013.40 1013.36 1013.22 1013.48 1014.22 1015.68 1016.88 1017.58 1018.33 1018.78 1019.57 1020.03 1020.38 1020.87 1020.93 1020.85 1020.82 1021.35 1021.76 1022.30 1022.30 1022.29 1021.72 1021.22 1020.82
1010.26 1009.91 1009.67 1009.68 1009.65 1009.88 1010.24 1010.20 1010.97 1011.63 1012.40 1012.76 1012.99 1013.46 1012.83 1012.85 1013.37 1013.98 1014.46 1014.78 1014.82 1014.02 1014.43 1015.99 1017.15 1018.03 1018.99 1019.73 1020.07 1020.69 1020.89 1021.36 1021.63 1021.53 1021.90 1022.52 1022.38 1022.55 1022.63 1022.61 1022.30 1021.74 1021.07 1020.37
1009.99 1009.53 1009.28 1009.00 1009.10 1009.49 1009.97 1010.95 1012.20 1013.37 1013.98 1014.83 1014.14 1014.44 1014.53 1014.98 1015.47 1015.67 1016.44 1016.60 1016.27 1015.88 1016.30 1017.15 1018.10 1018.54 1019.42 1020.06 1020.42 1021.12 1021.76 1022.03 1022.00 1022.28 1022.16 1023.41 1023.09 1022.83 1022.80 1022.66 1022.30 1021.83 1021.10 1020.81
1010.09 1009.57 1009.00 1008.77 1009.15 1009.77 1010.64 1012.23 1013.85 1015.20 1015.92 1015.86 1014.96 1015.33 1015.32 1015.49 1015.88 1016.23 1016.55 1016.83 1016.98 1017.18 1017.61 1018.29 1018.96 1019.52 1019.86 1020.10 1020.28 1020.85 1022.08 1022.36 1021.88 1022.55 1022.78 1023.91 1023.32 1023.15 1023.06 1022.79 1022.33 1022.09 1021.83 1021.31
1010.59 1009.89 1008.97 1008.62 1008.88 1009.63 1010.84 1012.19 1013.90 1015.43 1016.96 1016.39 1015.88 1015.78 1015.46 1015.80 1016.41 1016.86 1017.36 1017.91 1018.09 1018.45 1018.69 1019.06 1019.50 1020.08 1020.73 1021.04 1021.18 1021.71 1020.83 1022.94 1022.98 1022.78 1022.63 1023.56 1023.39 1023.37 1023.25 1022.85 1022.55 1022.30 1021.75 1021.11
1010.45 1009.89 1008.78 1008.37 1008.45 1009.23 1011.01 1012.22 1013.19 1015.31 1017.14 1017.20 1016.48 1016.21 1015.90 1016.20 1016.95 1017.59 1018.16 1018.71 1019.31 1019.49 1019.78 1019.95 1020.24 1020.51 1020.79 1021.20 1021.32 1020.97 1021.92 1022.62 1022.48 1023.00 1023.10 1023.21 1023.44 1023.02 1023.32 1023.11 1022.68 1022.03 1021.12 1020.65
1009.81 1009.95 1009.16 1008.55 1008.81 1009.79 1010.47 1011.89 1013.64 1015.42 1017.40 1017.97 1017.07 1016.67 1016.08 1016.34 1017.18 1018.03 1018.70 1019.01 1019.48 1019.97 1020.38 1020.74 1021.19 1021.59 1021.90 1022.09 1021.95 1021.33 1021.11 1021.70 1022.29 1023.08 1023.51 1023.40 1023.27 1023.19 1023.33 1023.07 1022.47 1021.52 1020.86 1020.44
1009.83 1010.20 1010.06 1009.46 1009.62 1010.14 1011.28 1012.38 1014.06 1015.58 1016.79 1017.52 1017.52 1016.62 1015.11 1015.83 1016.49 1017.41 1018.34 1018.98 1019.49 1020.21 1020.82 1021.27 1021.84 1022.28 1022.67 1022.59 1022.80 1023.00 1022.69 1021.41 1022.52 1023.29 1023.39 1023.15 1023.36 1023.10 1023.03 1022.60 1022.00 1021.38 1020.59 1020.15
1009.40 1010.16 1010.81 1010.64 1010.23 1010.34 1010.87 1012.15 1013.45 1015.37 1017.14 1017.50 1017.11 1015.70 1014.83 1015.49 1016.33 1017.10 1017.93 1018.70 1019.54 1020.14 1020.94 1021.73 1022.20 1022.52 1022.90 1023.02 1023.35 1023.44 1022.65 1022.71 1023.08 1023.00 1023.30 1023.56 1023.39 1022.92 1022.76 1022.17 1021.76 1021.02 1020.48 1019.86
1009.23 1010.58 1011.36 1011.43 1011.22 1010.84 1011.39 1012.23 1013.16 1014.57 1015.85 1016.91 1017.01 1015.87 1014.92 1015.42 1016.06 1016.89 1017.81 1018.70 1019.46 1020.35 1021.08 1021.71 1022.15 1022.56 1022.82 1023.27 1023.28 1023.19 1023.07 1023.38 1023.62 1023.10 1023.44 1023.38 1023.04 1022.78 1022.57 1022.12 1021.54 1020.71 1020.46 1019.75
1008.94 1010.91 1011.04 1011.40 1011.16 1011.21 1011.69 1012.23 1012.96 1013.47 1015.21 1016.30 1016.10 1015.48 1015.18 1015.50 1015.92 1016.68 1017.62 1018.57 1019.48 1020.28 1021.13 1021.70 1022.47 1022.78 1022.93 1023.14 1023.39 1023.56 1023.60 1023.57 1023.31 1023.18 1023.37 1023.13 1022.67 1022.82 1022.45 1021.77 1021.40 1020.88 1020.47 1019.87
1009.84 1011.39 1011.60 1011.69 1011.33 1011.16 1011.68 1012.33 1012.87 1013.31 1014.11 1014.69 1015.00 1015.13 1014.32 1014.60 1015.13 1015.60 1016.83 1018.34 1019.52 1020.42 1021.12 1021.77 1022.19 1022.67 1023.10 1023.60 1023.95 1023.37 1023.35 1023.44 1023.28 1023.26 1023.37 1023.23 1022.83 1022.55 1021.91 1022.02 1021.44 1021.18 1020.51 1020.01
1010.90 1012.29 1012.19 1012.57 1012.07 1011.72 1011.98 1012.22 1012.69 1013.13 1013.61 1014.04 1014.32 1014.65 1013.88 1014.38 1014.96 1015.98 1016.79 1017.92 1019.02 1019.97 1020.81 1021.52 1022.09 1022.52 1023.04 1023.46 1024.10 1023.88 1023.16 1023.44 1023.30 1023.39 1023.51 1023.24 1022.91 1022.26 1021.89 1022.30 1021.83 1021.38 1020.62 1020.36
1011.56 1012.71 1013.16 1013.52 1013.01 1012.37 1012.20 1012.05 1012.09 1012.72 1013.23 1013.54 1014.44 1014.33 1014.63 1015.05 1015.58 1016.03 1016.70 1017.58 1018.53 1019.43 1020.42 1021.25 1021.83 1022.28 1022.71 1023.55 1022.71 1023.91 1023.50 1023.40 1023.50 1023.35 1023.49 1023.23 1022.78 1022.04 1022.47 1022.20 1022.29 1021.58 1021.10 1020.76
1011.96 1013.03 1013.73 1014.54 1013.73 1013.34 1012.30 1011.83 1011.83 1012.60 1013.27 1013.76 1014.16 1014.48 1015.06 1015.52 1016.25 1016.63 1016.87 1017.57 1018.48 1019.35 1020.24 1021.15 1021.97 1022.63 1023.15 1023.69 1023.90 1023.38 1023.68 1023.77 1023.62 1023.45 1023.50 1023.08 1022.41 1022.24 1022.56 1022.39 1022.46 1021.83 1021.48 1021.13
1011.98 1013.00 1014.63 1015.03 1014.84 1014.15 1012.85 1012.42 1012.34 1012.80 1013.54 1013.86 1014.37 1015.00 1015.62 1016.29 1016.71 1017.13 1017.43 1017.77 1018.53 1019.34 1020.24 1021.16 1021.97 1022.62 1023.15 1023.44 1023.75 1023.61 1024.00 1024.10 1023.82 1023.62 1023.25 1022.84 1022.40 1022.35 1022.30 1022.65 1022.46 1022.07 1021.80 1021.29
1012.63 1013.02 1014.27 1015.62 1015.40 1014.53 1012.74 1011.85 1011.77 1012.35 1013.35 1013.54 1014.25 1015.14 1016.02 1016.81 1017.68 1017.54 1018.03 1018.37 1019.26 1019.86 1020.49 1021.29 1022.06 1022.61 1022.69 1022.93 1023.36 1023.77 1024.31 1024.22 1023.85 1023.37 1023.12 1022.77 1022.55 1022.23 1022.26 1022.51 1022.35 1022.11 1021.95 1021.43
1013.80 1014.62 1015.25 1015.75 1015.24 1014.16 1012.49 1012.01 1012.13 1013.07 1013.70 1013.38 1014.10 1014.90 1015.94 1016.94 1017.47 1018.00 1018.66 1019.34 1019.73 1020.30 1020.92 1021.67 1022.13 1022.55 1023.09 1022.85 1023.18 1024.10 1024.27 1024.01 1023.59 1023.35 1023.07 1022.61 1022.35 1022.07 1022.28 1022.24 1022.12 1022.01 1021.88 1021.41
1013.83 1014.85 1015.72 1016.01 1015.24 1013.97 1012.14 1012.40 1012.64 1012.69 1013.07 1013.45 1014.14 1014.87 1015.98 1017.07 1018.09 1018.75 1019.41 1020.01 1020.43 1020.73 1021.20 1021.73 1022.35 1022.77 1023.04 1022.93 1023.61 1024.05 1024.00 1023.78 1023.39 1023.25 1023.02 1022.57 1022.16 1022.15 1022.13 1022.12 1021.88 1021.82 1021.83 1021.53
1014.04 1014.04 1014.44 1014.72 1014.01 1013.05 1012.45 1012.24 1012.09 1012.47 1013.04 1013.84 1014.45 1015.29 1016.21 1017.36 1018.43 1019.18 1019.87 1020.40 1020.73 1021.01 1021.36 1021.79 1022.18 1022.78 1022.92 1023.19 1023.60 1023.65 1023.52 1023.40 1023.29 1023.11 1022.88 1022.54 1022.32 1022.23 1022.02 1021.94 1021.67 1021.73 1021.75 1021.56
1014.14 1014.10 1014.28 1014.48 1013.78 1013.29 1012.84 1012.72 1012.63 1012.90 1013.46 1014.22 1014.81 1015.63 1016.44 1017.39 1018.47 1019.22 1019.83 1020.47 1020.88 1021.08 1021.35 1021.74 1022.18 1022.50 1022.77 1022.91 1023.27 1023.27 1023.21 1023.22 1023.03 1022.97 1022.95 1022.73 1022.58 1022.22 1021.87 1021.61 1021.45 1021.44 1021.36 1021.34
1014.38 1014.32 1014.54 1014.46 1013.94 1013.54 1013.17 1013.13 1013.21 1013.59 1014.04 1014.74 1015.54 1016.16 1016.87 1017.56 1018.46 1019.01 1019.74 1020.32 1020.74 1021.16 1021.49 1021.98 1022.32 1022.43 1022.59 1022.86 1023.01 1022.93 1022.92 1022.76 1022.87 1023.04 1022.89 1022.72 1022.54 1022.32 1021.81 1021.41 1021.12 1020.98 1020.75 1020.75
1014.31 1014.16 1014.31 1014.18 1013.85 1013.87 1013.76 1013.69 1013.66 1013.94 1014.51 1015.15 1015.71 1016.67 1017.26 1017.67 1018.41 1019.19 1019.88 1020.29 1020.75 1021.24 1021.70 1022.28 1022.44 1022.42 1022.62 1022.80 1022.83 1022.75 1022.80 1022.50 1022.88 1023.01 1022.92 1022.71 1022.37 1022.06 1021.78 1021.36 1020.84 1020.37 1020.29 1020.28
Wind_Speed
3 5 3 6 5 3 2 3 3 6 5 4 3 5 8 7 7 9 8 9 10 16 5 4 5 6 7 7 8 6 8 5 4 2 3 3 4 4 6 6 8 7 7 7
6 3 8 3 4 4 3 1 5 6 3 1 4 7 5 6 18 17 13 8 9 4 5 7 8 6 5 8 8 9 9 8 5 3 3 3 3 4 4 4 5 7 7 7
6 5 6 4 2 3 4 5 4 6 4 4 5 8 7 2 4 3 0 3 6 11 5 7 8 8 9 11 12 12 11 10 9 6 3 4 4 2 3 6 4 5 7 6
5 4 5 3 4 6 3 7 5 3 3 1 2 4 4 5 2 5 6 9 10 9 5 7 10 11 12 13 14 14 13 11 10 8 9 10 4 4 4 3 3 5 5 6
8 4 3 2 3 4 8 1 4 3 4 4 5 5 7 6 8 10 12 14 14 11 5 13 15 16 16 14 14 12 13 12 10 11 10 6 5 3 2 2 5 4 6 8
7 2 2 5 1 5 4 6 9 6 4 4 4 4 6 4 6 2 4 9 11 15 18 18 16 16 15 12 12 11 11 10 9 9 9 6 4 3 3 3 4 5 7 7
3 5 3 3 3 2 6 7 3 4 5 6 2 3 6 5 4 4 8 10 11 13 14 15 15 13 11 11 11 11 8 7 8 7 7 4 4 3 3 3 4 7 5 5
7 7 6 4 8 6 5 8 8 6 4 5 3 4 4 2 5 8 9 9 11 12 13 13 11 9 9 9 9 7 11 5 6 5 6 3 5 2 2 4 3 3 3 6
6 6 4 4 4 6 3 3 4 9 4 3 2 2 5 4 5 6 7 9 9 10 8 10 10 9 9 7 7 10 8 5 6 6 3 4 2 5 4 5 4 4 4 6
8 1 2 3 5 4 4 4 4 3 6 4 4 2 5 4 5 6 6 7 9 8 7 8 7 6 4 3 3 7 9 8 7 5 3 2 4 4 5 5 7 6 6 7
6 5 6 1 1 6 2 0 7 7 4 7 3 7 6 8 7 9 8 8 9 8 7 7 4 5 5 5 5 4 4 9 6 3 2 5 5 5 5 5 6 6 6 7
8 7 4 6 3 2 2 5 5 7 4 2 3 8 3 6 4 9 10 10 7 8 7 5 6 5 3 4 1 1 6 6 3 3 4 4 5 5 5 6 7 6 7 7
9 1 3 7 6 1 5 2 4 7 4 5 7 7 3 3 4 8 10 9 9 8 7 6 5 4 4 3 2 3 4 4 2 4 3 4 5 5 6 6 7 8 7 8
9 4 8 11 7 3 4 3 3 6 5 5 5 3 5 8 7 8 8 8 8 9 8 6 5 4 3 3 2 2 3 2 4 4 4 4 5 5 5 6 8 8 7 7
5 5 4 4 3 4 4 3 2 2 5 5 3 7 7 13 15 14 8 8 10 10 8 6 5 4 3 2 1 3 3 3 4 5 5 6 5 5 5 7 8 8 7 7
3 2 2 4 3 6 4 1 4 4 5 3 4 7 4 4 7 8 10 12 12 11 10 8 7 6 5 3 2 2 3 4 4 5 5 6 6 5 6 6 8 7 8 7
4 6 3 3 1 5 3 5 5 1 2 5 3 7 3 3 5 7 9 12 13 12 11 9 8 6 6 3 5 1 3 4 5 4 5 6 5 5 5 6 7 7 7 5
6 5 3 3 3 2 6 3 1 4 2 3 4 4 3 2 3 4 3 9 10 12 11 8 6 6 5 3 2 2 4 4 4 5 5 5 5 5 4 5 6 6 4 5
3 6 4 6 4 4 1 4 7 6 7 6 5 2 2 3 2 3 4 4 7 8 9 8 7 5 5 4 0 4 4 5 4 5 5 6 5 4 3 4 5 4 4 4
5 7 6 3 5 7 9 3 4 5 5 7 6 6 7 5 2 4 4 6 9 10 10 10 8 4 5 5 2 3 4 4 5 5 7 6 5 4 3 3 3 3 3 3
3 4 5 3 3 6 7 5 3 5 10 6 7 7 8 6 2 5 8 7 8 9 11 9 7 5 4 5 6 2 3 5 5 5 5 5 5 4 4 3 2 2 3 4
7 7 4 4 3 6 6 4 8 8 0 5 5 5 6 7 8 8 8 9 10 11 10 8 5 4 4 5 3 3 3 5 5 5 5 6 6 4 3 4 3 1 3 3
2 6 6 8 8 4 4 3 1 4 6 4 4 3 7 11 6 10 9 9 8 9 8 6 6 5 3 4 4 1 3 5 5 5 6 6 6 5 4 4 4 2 2 3
1 2 3 3 2 4 3 1 3 3 4 5 4 7 8 9 12 11 9 8 8 9 8 6 7 6 5 4 4 3 3 3 4 5 6 6 5 6 5 3 2 2 3 3
3 3 3 2 3 2 1 3 3 4 7 10 7 6 8 13 11 11 8 8 7 6 5 4 5 5 4 3 3 2 3 2 4 4 4 5 4 5 5 4 4 3 4 4
3 5 4 5 3 2 2 2 1 5 5 7 9 6 6 6 11 9 8 7 6 5 4 3 3 3 3 3 2 3 3 3 3 4 4 4 4 4 3 4 6 5 9 7
Wind_Direction
17 66 213 236 187 154 138 147 228 246 248 221 228 256 254 211 204 201 205 207 217 224 216 150 153 121 107 80 90 93 97 82 100 111 117 97 89 73 56 43 35 23 7 360
19 242 223 186 171 187 202 256 276 286 316 156 10 301 297 212 215 202 203 226 242 281 177 145 144 117 98 101 87 78 75 66 57 58 52 82 100 92 96 56 28 6 356 347
165 230 110 167 198 192 210 190 233 207 331 36 8 325 346 346 62 78 131 250 236 227 180 152 136 113 93 80 80 75 66 60 52 52 71 60 57 59 27 18 358 345 337 333
221 245 205 161 236 168 295 210 205 230 103 194 51 275 328 353 267 233 6 342 317 299 166 135 106 79 81 79 74 68 62 56 48 34 58 65 62 16 355 346 307 324 316 319
242 175 142 183 164 145 242 66 144 76 80 61 344 73 269 3 24 9 4 351 351 319 108 82 88 88 76 68 72 69 68 60 50 53 48 35 37 21 347 322 322 315 331 344
215 264 230 212 178 186 145 65 44 52 70 40 270 122 301 2 289 311 29 24 43 66 79 83 84 89 88 84 80 74 69 62 58 52 51 23 36 41 15 331 338 343 352 337
328 249 239 178 313 62 78 62 355 4 19 216 316 61 244 304 342 42 40 52 67 81 88 90 92 94 99 100 105 95 71 79 69 61 63 355 39 36 360 340 354 348 336 318
171 318 176 174 185 183 169 152 152 187 180 246 78 216 257 7 106 81 76 84 87 92 99 104 101 91 77 73 80 91 95 88 63 78 69 11 19 12 349 350 327 300 282 304
137 265 279 211 146 129 170 169 175 101 10 72 240 315 309 122 91 91 101 107 97 98 93 100 107 115 121 118 127 105 118 101 80 48 51 36 349 21 342 318 295 272 291 314
206 4 245 280 97 42 141 156 81 21 133 192 294 244 234 200 154 145 141 142 141 134 122 115 114 120 113 100 74 117 124 105 80 69 21 1 351 337 303 293 292 311 305 301
132 121 272 341 118 178 141 155 59 109 114 149 168 260 211 195 176 182 181 178 162 146 142 145 122 62 53 53 30 21 79 87 88 90 7 6 316 308 296 293 301 300 299 305
195 152 190 224 290 246 143 147 126 117 214 72 146 268 196 187 125 168 187 175 160 155 146 121 117 126 90 64 57 185 69 81 80 53 1 309 296 321 310 318 313 307 317 318
178 211 97 351 354 20 97 92 118 110 96 185 125 261 332 186 181 183 179 174 166 149 139 144 135 108 103 112 90 60 74 53 11 31 336 318 330 340 322 312 312 329 322 320
86 99 163 205 197 149 139 139 151 118 114 164 214 244 248 234 214 189 188 176 167 156 157 134 109 127 121 92 94 118 66 33 15 3 340 337 348 317 310 332 331 330 322 321
93 111 111 79 74 97 111 131 188 97 142 136 223 208 245 214 207 205 169 148 157 162 157 137 150 132 91 75 235 118 51 10 9 2 345 333 321 316 351 342 341 323 336 340
34 144 116 58 36 109 115 132 192 192 154 249 152 252 242 340 123 162 176 165 170 170 152 156 146 139 135 139 317 355 52 359 15 347 323 313 320 336 14 331 343 330 354 355
86 134 93 186 316 176 17 234 182 148 146 126 169 241 333 297 236 200 180 175 174 161 156 155 160 153 139 175 154 335 359 360 343 341 311 303 311 3 343 354 337 347 354 340
123 94 80 128 39 79 252 342 9 136 133 204 236 239 235 238 94 19 150 174 159 156 151 143 122 132 122 104 56 323 5 339 334 329 302 304 347 358 331 8 340 344 345 338
57 119 91 130 170 282 195 197 147 168 243 195 215 170 102 117 91 323 348 116 142 138 122 127 133 131 128 136 169 39 347 319 323 319 316 330 350 323 4 332 333 335 333 338
53 67 107 122 136 198 235 242 157 117 289 189 178 182 167 170 157 252 129 109 109 116 129 131 126 126 136 157 99 51 295 309 322 331 320 315 315 328 299 272 311 322 309 331
59 29 134 118 184 288 249 219 141 112 237 171 172 182 169 191 172 118 111 88 112 124 125 125 131 142 208 132 100 258 295 313 311 306 312 320 326 336 257 257 252 313 336 3
154 134 170 94 91 264 177 87 160 208 37 161 172 172 151 108 107 110 110 116 123 126 128 130 138 171 168 107 128 250 302 301 317 322 319 332 342 329 261 253 266 294 334 357
149 171 179 166 208 245 276 247 114 152 144 171 149 123 124 127 128 132 132 131 132 139 147 152 142 142 135 162 196 279 308 336 324 336 343 338 335 322 300 269 269 273 296 312
99 123 145 89 269 276 309 56 72 51 100 111 95 128 133 129 141 139 139 145 153 154 157 153 154 156 158 202 212 227 303 309 8 358 343 337 332 325 317 297 263 252 258 272
190 116 144 263 283 292 311 27 118 88 90 97 94 116 134 140 147 148 149 162 160 151 134 142 164 166 183 194 250 342 323 9 3 342 327 327 322 320 313 303 275 252 238 214
188 168 154 216 225 164 282 331 87 122 125 131 126 118 132 138 146 142 150 150 141 149 140 152 175 163 200 194 283 342 339 45 0 316 326 324 323 314 327 323 321 243 246 262